Date String (YYYY-MM-DD hh:mm:ss) UTC,Instrument flags,absolute air pressure of the measurement (hPa),sample flow rate (lpm),inlet stack bypass flow (lpm),air temperature of the measurement (°C),ambient temperature measured by the external sensor (°C),aerosol sample conditioner tube jacket temperature (°C),OPC LED temperature (°C),internal box temperature (°C),relative humidity of the measurement (%),span deviation,mass concentration of particles derived from Lorenz-Mie calculation of OPC scattering (μg/m³),mass concentration of particles derived from Lorenz-Mie calculation of OPC scattering (μg/m³),mass concentration of particles derived from Lorenz-Mie calculation of OPC scattering (μg/m³)
DateTimeUTC,F1_M11,P_M11,Q1_M11,Q2_M11,T1_M11,T2_M11,T3_M11,T4_M11,T5_M11,U1_M11,ZSPAN_M11,X0_M11,X2_M11,X1_M11
2023-11-13 09:00:00,SystemResetWarning,0837.2,5.00,000.00,024.7,023.7,000.0,033.2,026.2,8.9,0000.0,0008.02,0003.05,0002.25
2023-11-13 09:01:00,SystemResetWarning,0837.2,4.99,000.00,024.7,023.7,000.0,033.2,026.2,8.9,0000.0,0008.00,0003.02,0002.24
2023-11-13 09:02:00,SystemResetWarning,0837.2,4.99,000.00,024.7,023.7,000.0,033.2,026.2,8.9,0000.0,0008.16,0003.05,0002.24
2023-11-13 09:03:00,SystemResetWarning,0837.2,5.00,000.00,024.7,023.7,000.0,033.2,026.2,8.9,0000.0,0007.83,0003.05,0002.26
2023-11-13 09:04:00,SystemResetWarning,0837.2,5.01,000.00,024.7,023.7,000.0,033.2,026.1,8.9,0000.0,0007.34,0003.10,0002.28
2023-11-13 09:05:00,SystemResetWarning,0837.2,5.01,000.00,024.7,023.6,000.0,033.1,026.1,8.9,0000.0,0007.22,0003.15,0002.31
2023-11-13 09:06:00,SystemResetWarning,0837.2,5.00,000.00,024.7,023.6,000.0,033.1,026.1,8.9,0000.0,0007.27,0003.18,0002.33
2023-11-13 09:07:00,SystemResetWarning,0837.2,5.00,000.00,024.6,023.6,000.0,033.1,026.1,8.9,0000.0,0007.37,0003.17,0002.35
2023-11-13 09:08:00,SystemResetWarning,0837.2,5.00,000.00,024.6,023.6,000.0,033.1,026.1,9.0,0000.0,0007.72,0003.21,0002.37
2023-11-13 09:09:00,SystemResetWarning,0837.2,5.00,000.00,024.6,023.6,000.0,033.1,026.1,9.0,0000.0,0007.88,0003.24,0002.39
2023-11-13 09:10:00,SystemResetWarning,0837.2,4.99,000.00,024.6,023.6,000.0,033.1,026.1,9.0,0000.0,0007.89,0003.25,0002.40
2023-11-13 09:11:00,SystemResetWarning,0837.2,5.00,000.00,024.6,023.6,000.0,033.1,026.1,9.0,0000.0,0008.15,0003.26,0002.42
2023-11-13 09:12:00,SystemResetWarning,0837.2,4.99,000.00,024.6,023.5,000.0,033.1,026.1,9.1,0000.0,0008.55,0003.31,0002.47
2023-11-13 09:13:00,SystemResetWarning,0837.2,5.00,000.00,024.6,023.5,000.0,033.1,026.0,9.1,0000.0,0008.30,0003.34,0002.50
2023-11-13 09:14:00,SystemResetWarning,0837.2,5.01,000.00,024.6,023.5,000.0,033.0,026.0,9.2,0000.0,0008.34,0003.35,0002.53
2023-11-13 09:15:00,SystemResetWarning,0837.2,5.01,000.00,024.5,023.5,000.0,033.0,026.0,9.2,0000.0,0008.24,0003.32,0002.53
2023-11-13 09:16:00,SystemResetWarning,0837.2,5.00,000.00,024.5,023.4,000.0,033.0,026.0,9.1,0000.0,0008.24,0003.30,0002.55
2023-11-13 09:17:00,SystemResetWarning,0837.1,5.00,000.00,024.5,023.4,000.0,033.0,026.0,9.1,0000.0,0008.81,0003.32,0002.56
2023-11-13 09:18:00,SystemResetWarning,0837.1,4.99,000.00,024.5,023.4,000.0,033.0,025.9,9.1,0000.0,0009.64,0003.36,0002.58
2023-11-13 09:19:00,SystemResetWarning,0837.1,5.00,000.00,024.5,023.4,000.0,033.0,025.9,9.1,0000.0,0009.37,0003.37,0002.60
2023-11-13 09:20:00,SystemResetWarning,0837.1,5.00,000.00,024.5,023.4,000.0,033.0,025.9,9.2,0000.0,0009.24,0003.39,0002.64
2023-11-13 09:21:00,SystemResetWarning,0837.1,5.00,000.00,024.5,023.3,000.0,033.0,025.9,9.2,0000.0,0009.00,0003.41,0002.70
2023-11-13 09:22:00,SystemResetWarning,0837.1,5.00,000.00,024.4,023.3,000.0,032.9,025.8,9.2,0000.0,0009.58,0003.47,0002.75
2023-11-13 09:23:00,SystemResetWarning,0837.0,5.00,000.00,024.4,023.3,000.0,032.9,025.6,9.2,0000.0,0008.88,0003.49,0002.78
2023-11-13 09:24:00,SystemResetWarning,0837.0,5.00,000.00,024.4,023.3,000.0,032.9,025.5,9.2,0000.0,0009.04,0003.50,0002.79
2023-11-13 09:25:00,SystemResetWarning,0836.9,5.01,000.00,024.4,023.3,000.0,032.9,025.5,9.2,0000.0,0009.43,0003.52,0002.80
2023-11-13 09:26:00,SystemResetWarning,0836.9,5.00,000.00,024.3,023.2,000.0,032.9,025.5,9.2,0000.0,0009.45,0003.53,0002.81
2023-11-13 09:27:00,SystemResetWarning,0836.9,5.00,000.00,024.3,023.2,000.0,032.8,025.4,9.3,0000.0,0009.56,0003.59,0002.82
2023-11-13 09:28:00,SystemResetWarning,0836.9,5.00,000.00,024.3,023.2,000.0,032.8,025.5,9.3,0000.0,0009.30,0003.62,0002.84
2023-11-13 09:29:00,SystemResetWarning,0836.9,5.00,000.00,024.3,023.2,000.0,032.8,025.5,9.3,0000.0,0009.17,0003.65,0002.86
2023-11-13 09:30:00,SystemResetWarning,0837.0,5.00,000.00,024.2,023.1,000.0,032.8,025.5,9.3,0000.0,0009.25,0003.67,0002.86
2023-11-13 09:31:00,SystemResetWarning,0836.9,5.00,000.00,024.2,023.1,000.0,032.8,025.5,9.3,0000.0,0009.88,0003.68,0002.89
2023-11-13 09:32:00,SystemResetWarning,0836.9,5.00,000.00,024.2,023.1,000.0,032.7,025.5,9.3,0000.0,0010.24,0003.74,0002.90
2023-11-13 09:33:00,SystemResetWarning,0836.9,5.00,000.00,024.2,023.1,000.0,032.7,025.4,9.3,0000.0,0009.73,0003.79,0002.92
2023-11-13 09:34:00,SystemResetWarning,0836.9,5.00,000.00,024.2,023.1,000.0,032.7,025.4,9.2,0000.0,0009.75,0003.78,0002.95
2023-11-13 09:35:00,SystemResetWarning,0836.9,5.00,000.00,024.1,023.1,000.0,032.7,025.3,9.2,0000.0,0010.40,0003.79,0002.95
2023-11-13 09:36:00,SystemResetWarning,0836.9,5.00,000.00,024.1,023.1,000.0,032.7,025.4,9.2,0000.0,0009.92,0003.82,0002.98
2023-11-13 09:37:00,SystemResetWarning,0836.9,4.99,000.00,024.1,023.1,000.0,032.6,025.3,9.2,0000.0,0009.96,0003.84,0002.99
2023-11-13 09:38:00,SystemResetWarning,0836.9,5.00,000.00,024.1,023.1,000.0,032.6,025.3,9.2,0000.0,0009.86,0003.83,0003.01
2023-11-13 09:39:00,SystemResetWarning,0837.0,5.00,000.00,024.1,023.1,000.0,032.6,025.3,9.3,0000.0,0009.89,0003.81,0002.99
2023-11-13 09:40:00,SystemResetWarning,0837.0,5.01,000.00,024.1,023.1,000.0,032.6,025.2,9.4,0000.0,0009.58,0003.76,0002.96
2023-11-13 09:41:00,SystemResetWarning,0837.0,5.01,000.00,024.1,023.0,000.0,032.6,025.3,9.4,0000.0,0009.33,0003.72,0002.94
2023-11-13 09:42:00,SystemResetWarning,0837.0,5.01,000.00,024.0,023.0,000.0,032.6,025.4,9.5,0000.0,0009.05,0003.70,0002.90
2023-11-13 09:43:00,SystemResetWarning,0836.9,5.00,000.00,024.0,023.0,000.0,032.5,025.3,9.5,0000.0,0008.56,0003.65,0002.86
2023-11-13 09:44:00,SystemResetWarning,0836.9,4.99,000.00,024.0,023.0,000.0,032.5,025.3,9.6,0000.0,0008.75,0003.57,0002.81
2023-11-13 09:45:00,SystemResetWarning,0837.0,5.00,000.00,024.0,023.0,000.0,032.5,025.3,9.6,0000.0,0008.99,0003.52,0002.77
2023-11-13 09:46:00,SystemResetWarning,0837.0,4.99,000.00,024.0,023.0,000.0,032.5,025.4,9.6,0000.0,0008.18,0003.52,0002.79
2023-11-13 09:47:00,SystemResetWarning,0837.0,5.01,000.00,024.0,023.0,000.0,032.5,025.4,9.6,0000.0,0008.08,0003.48,0002.78
2023-11-13 09:48:00,SystemResetWarning,0837.0,5.00,000.00,024.0,023.0,000.0,032.5,025.4,9.6,0000.0,0008.56,0003.47,0002.81
2023-11-13 09:49:00,SystemResetWarning,0837.0,5.00,000.00,024.0,023.0,000.0,032.4,025.4,9.7,0000.0,0009.22,0003.49,0002.85
2023-11-13 09:50:00,SystemResetWarning,0837.0,5.01,000.00,024.0,023.0,000.0,032.4,025.4,9.7,0000.0,0009.85,0003.53,0002.93
2023-11-13 09:51:00,SystemResetWarning,0836.9,5.00,000.00,023.9,022.9,000.0,032.4,025.3,9.7,0000.0,0009.88,0003.58,0003.02
2023-11-13 09:52:00,SystemResetWarning,0836.9,5.00,000.00,023.9,022.9,000.0,032.4,025.3,9.7,0000.0,0010.52,0003.66,0003.11
2023-11-13 09:53:00,SystemResetWarning,0836.9,4.99,000.00,023.9,022.9,000.0,032.4,025.4,9.7,0000.0,0010.80,0003.73,0003.17
2023-11-13 09:54:00,SystemResetWarning,0836.8,4.99,000.00,023.9,022.9,000.0,032.4,025.4,9.7,0000.0,0010.87,0003.82,0003.23
2023-11-13 09:55:00,SystemResetWarning,0836.8,4.99,000.00,023.9,022.9,000.0,032.4,025.4,9.6,0000.0,0010.51,0003.87,0003.30
2023-11-13 09:56:00,SystemResetWarning,0836.8,5.00,000.00,023.9,022.9,000.0,032.4,025.3,9.6,0000.0,0010.82,0003.93,0003.34
2023-11-13 09:57:00,SystemResetWarning,0836.8,5.00,000.00,023.9,022.9,000.0,032.4,025.3,9.5,0000.0,0011.73,0003.99,0003.38
2023-11-13 09:58:00,SystemResetWarning,0836.7,5.01,000.00,023.9,022.9,000.0,032.4,025.3,9.5,0000.0,0011.91,0004.08,0003.43
2023-11-13 09:59:00,SystemResetWarning,0836.7,5.00,000.00,023.9,022.9,000.0,032.3,025.3,9.5,0000.0,0011.89,0004.13,0003.46
